^^

..:: Storico WU ::..




Lo storico viene creato da WUnderground con i dati che la stazione Meteomincio invia al loro server. L' aggiornamento viene fatto ogni 5 minuti circa, tuttavia possono esserci intervalli pił ampi a causa di errori, interruzioni di servizio o problemi nell' invio tramite FTP.


Storico stazione MeteoMincio
Giorno Sommario per Marzo 15, 2022 Unità:  Inglese    Metrico   Entrambi
Giorno Settimana Mese Anno
  Max: Min: Media:
Temperatura: 59 °F 37.4 °F 48.4 °F
Dew Point: 46.4 °F 33.8 °F 40.5 °F
Umidità: 89% 59% 75%
Velocità vento: 7.5mph 0mph 2.2mph
Raffica: 10.6mph - -
Direzione- - SSE
Pressione: 30.6 in 30.4 in -
Precipitazioni: 0 in    
 
 
Tabulato Dati per Marzo 15, 2022
Ora Temperatura Dew Point Pressione Direzione Velocità vento Raffica Umidità Intensità pioggia (oraria) Info solare Situazione
00:04 42.8 °F 37.4 °F 30.6 in NE 3.1 mph 3.7 mph 77% 0 in 0.00 W/m2 unknown
00:09 42.8 °F 35.6 °F 30.6 in NE 3.1 mph 3.7 mph 77% 0 in 0.00 W/m2 unknown
00:14 42.8 °F 35.6 °F 30.6 in NE 3.1 mph 3.7 mph 77% 0 in 0.00 W/m2 unknown
00:19 42.8 °F 35.6 °F 30.6 in NE 2.5 mph 3.7 mph 78% 0 in 0.00 W/m2 unknown
00:24 42.8 °F 35.6 °F 30.6 in NNE 3.1 mph 3.7 mph 78% 0 in 0.00 W/m2 unknown
00:29 42.8 °F 35.6 °F 30.6 in NE 3.1 mph 3.7 mph 78% 0 in 0.00 W/m2 unknown
00:34 42.8 °F 37.4 °F 30.6 in NE 2.5 mph 3.7 mph 79% 0 in 0.00 W/m2 unknown
00:39 42.8 °F 37.4 °F 30.6 in NE 1.2 mph 3.1 mph 79% 0 in 0.00 W/m2 unknown
00:44 42.8 °F 35.6 °F 30.6 in NNE 2.5 mph 3.7 mph 79% 0 in 0.00 W/m2 unknown
00:49 42.8 °F 37.4 °F 30.6 in NE 2.5 mph 3.7 mph 80% 0 in 0.00 W/m2 unknown
00:54 42.8 °F 37.4 °F 30.6 in NE 2.5 mph 3.7 mph 80% 0 in 0.00 W/m2 unknown
00:59 42.8 °F 37.4 °F 30.6 in NE 2.5 mph 3.7 mph 80% 0 in 0.00 W/m2 unknown
01:04 42.8 °F 37.4 °F 30.6 in NE 1.9 mph 3.7 mph 80% 0 in 0.00 W/m2 unknown
01:09 42.8 °F 37.4 °F 30.6 in NE 1.9 mph 3.1 mph 80% 0 in 0.00 W/m2 unknown
01:14 42.8 °F 37.4 °F 30.6 in NE 1.9 mph 2.5 mph 81% 0 in 0.00 W/m2 unknown
01:19 42.8 °F 37.4 °F 30.6 in NE 1.9 mph 3.7 mph 80% 0 in 0.00 W/m2 unknown
01:24 42.8 °F 37.4 °F 30.6 in NE 1.9 mph 3.7 mph 80% 0 in 0.00 W/m2 unknown
01:29 42.8 °F 37.4 °F 30.6 in NE 1.2 mph 3.1 mph 81% 0 in 0.00 W/m2 unknown
01:34 42.8 °F 37.4 °F 30.6 in NE 1.9 mph 2.5 mph 82% 0 in 0.00 W/m2 unknown
01:39 42.8 °F 37.4 °F 30.6 in NE 1.2 mph 2.5 mph 81% 0 in 0.00 W/m2 unknown
01:44 42.8 °F 37.4 °F 30.6 in NE 1.2 mph 2.5 mph 82% 0 in 0.00 W/m2 unknown
01:49 41 °F 37.4 °F 30.6 in NE 1.9 mph 2.5 mph 82% 0 in 0.00 W/m2 unknown
01:54 41 °F 35.6 °F 30.6 in NE 1.2 mph 1.9 mph 82% 0 in 0.00 W/m2 unknown
01:59 41 °F 35.6 °F 30.6 in NE 1.2 mph 2.5 mph 83% 0 in 0.00 W/m2 unknown
02:04 41 °F 35.6 °F 30.6 in NE 1.2 mph 1.9 mph 83% 0 in 0.00 W/m2 unknown
02:09 41 °F 35.6 °F 30.6 in Calm   1.2 mph 84% 0 in 0.00 W/m2 unknown
02:14 41 °F 35.6 °F 30.6 in Calm   1.2 mph 84% 0 in 0.00 W/m2 unknown
02:19 39.2 °F 35.6 °F 30.6 in NE 0.6 mph 1.2 mph 84% 0 in 0.00 W/m2 unknown
02:24 39.2 °F 35.6 °F 30.6 in NE 1.9 mph 2.5 mph 85% 0 in 0.00 W/m2 unknown
02:29 39.2 °F 35.6 °F 30.6 in NE 1.9 mph 2.5 mph 85% 0 in 0.00 W/m2 unknown
02:34 41 °F 35.6 °F 30.6 in NE 1.2 mph 2.5 mph 85% 0 in 0.00 W/m2 unknown
02:39 41 °F 35.6 °F 30.6 in NE 1.2 mph 2.5 mph 85% 0 in 0.00 W/m2 unknown
02:44 39.2 °F 35.6 °F 30.6 in Calm   1.9 mph 85% 0 in 0.00 W/m2 unknown
02:49 39.2 °F 35.6 °F 30.6 in NE 1.9 mph 2.5 mph 85% 0 in 0.00 W/m2 unknown
02:54 39.2 °F 35.6 °F 30.6 in NE 1.2 mph 1.9 mph 85% 0 in 0.00 W/m2 unknown
02:59 39.2 °F 35.6 °F 30.6 in NE 1.2 mph 1.9 mph 85% 0 in 0.00 W/m2 unknown
03:04 39.2 °F 35.6 °F 30.6 in NE 1.2 mph 2.5 mph 85% 0 in 0.00 W/m2 unknown
03:09 39.2 °F 35.6 °F 30.6 in NE 1.2 mph 1.9 mph 85% 0 in 0.00 W/m2 unknown
03:14 39.2 °F 35.6 °F 30.6 in NE 1.2 mph 1.2 mph 85% 0 in 0.00 W/m2 unknown
03:19 39.2 °F 35.6 °F 30.6 in NE 1.2 mph 2.5 mph 85% 0 in 0.00 W/m2 unknown
03:24 39.2 °F 35.6 °F 30.6 in NE 1.2 mph 2.5 mph 85% 0 in 0.00 W/m2 unknown
03:29 39.2 °F 35.6 °F 30.6 in NE 1.2 mph 1.9 mph 85% 0 in 0.00 W/m2 unknown
03:34 39.2 °F 33.8 °F 30.6 in Calm   1.2 mph 85% 0 in 0.00 W/m2 unknown
03:39 37.4 °F 33.8 °F 30.6 in Calm     85% 0 in 0.00 W/m2 unknown
03:44 39.2 °F 33.8 °F 30.6 in Calm     85% 0 in 0.00 W/m2 unknown
03:49 39.2 °F 33.8 °F 30.6 in Calm     85% 0 in 0.00 W/m2 unknown
03:54 39.2 °F 33.8 °F 30.6 in Calm     85% 0 in 0.00 W/m2 unknown
03:59 39.2 °F 33.8 °F 30.6 in Calm     85% 0 in 0.00 W/m2 unknown
04:04 39.2 °F 33.8 °F 30.6 in NE 0.6 mph 1.2 mph 85% 0 in 0.00 W/m2 unknown
04:09 39.2 °F 33.8 °F 30.6 in NE 1.2 mph 1.2 mph 85% 0 in 0.00 W/m2 unknown
04:14 39.2 °F 35.6 °F 30.6 in Calm   1.2 mph 85% 0 in 0.00 W/m2 unknown
04:19 39.2 °F 35.6 °F 30.6 in Calm     85% 0 in 0.00 W/m2 unknown
04:24 39.2 °F 35.6 °F 30.6 in Calm     85% 0 in 0.00 W/m2 unknown
04:29 39.2 °F 35.6 °F 30.6 in Calm     85% 0 in 0.00 W/m2 unknown
04:34 39.2 °F 35.6 °F 30.6 in Calm     85% 0 in 0.00 W/m2 unknown
04:39 39.2 °F 35.6 °F 30.6 in Calm     86% 0 in 0.00 W/m2 unknown
04:44 39.2 °F 35.6 °F 30.6 in Calm     86% 0 in 0.00 W/m2 unknown
04:49 39.2 °F 35.6 °F 30.6 in Calm     86% 0 in 0.00 W/m2 unknown
04:54 39.2 °F 35.6 °F 30.6 in Calm     86% 0 in 0.00 W/m2 unknown
04:59 39.2 °F 35.6 °F 30.6 in Calm     86% 0 in 0.00 W/m2 unknown
05:04 39.2 °F 35.6 °F 30.6 in Calm     86% 0 in 0.00 W/m2 unknown
05:09 39.2 °F 35.6 °F 30.6 in Calm     86% 0 in 0.00 W/m2 unknown
05:14 39.2 °F 35.6 °F 30.6 in Calm     86% 0 in 0.00 W/m2 unknown
05:19 39.2 °F 35.6 °F 30.6 in Calm     86% 0 in 0.00 W/m2 unknown
05:24 39.2 °F 35.6 °F 30.6 in Calm     86% 0 in 0.00 W/m2 unknown
05:29 39.2 °F 35.6 °F 30.6 in Calm     86% 0 in 0.00 W/m2 unknown
05:34 39.2 °F 35.6 °F 30.6 in Calm     86% 0 in 0.00 W/m2 unknown
05:39 39.2 °F 35.6 °F 30.6 in Calm     86% 0 in 0.00 W/m2 unknown
05:44 39.2 °F 35.6 °F 30.6 in Calm     86% 0 in 0.00 W/m2 unknown
05:49 39.2 °F 35.6 °F 30.6 in Calm     86% 0 in 0.00 W/m2 unknown
05:54 39.2 °F 35.6 °F 30.6 in Calm     86% 0 in 0.00 W/m2 unknown
05:59 41 °F 35.6 °F 30.6 in Calm     86% 0 in 0.00 W/m2 unknown
06:04 41 °F 35.6 °F 30.6 in Calm     86% 0 in 0.00 W/m2 unknown
06:09 41 °F 35.6 °F 30.6 in Calm     85% 0 in 0.00 W/m2 unknown
06:14 41 °F 35.6 °F 30.6 in Calm     85% 0 in 0.00 W/m2 unknown
06:19 41 °F 35.6 °F 30.6 in Calm     85% 0 in 0.00 W/m2 unknown
06:24 41 °F 35.6 °F 30.6 in Calm     85% 0 in 0.00 W/m2 unknown
06:29 41 °F 37.4 °F 30.6 in Calm   1.9 mph 85% 0 in 0.00 W/m2 unknown
06:34 41 °F 37.4 °F 30.6 in Calm   2.5 mph 85% 0 in 0.00 W/m2 unknown
06:39 41 °F 37.4 °F 30.6 in Calm   1.9 mph 85% 0 in 0.00 W/m2 unknown
06:44 41 °F 37.4 °F 30.6 in Calm   1.2 mph 85% 0 in 5.00 W/m2 unknown
06:49 41 °F 37.4 °F 30.6 in Calm   2.5 mph 86% 0 in 7.00 W/m2 unknown
06:54 41 °F 37.4 °F 30.6 in Calm   1.9 mph 87% 0 in 11.00 W/m2 unknown
06:59 41 °F 37.4 °F 30.6 in Calm     87% 0 in 14.00 W/m2 unknown
07:04 41 °F 37.4 °F 30.6 in Calm   1.2 mph 87% 0 in 16.00 W/m2 unknown
07:09 41 °F 37.4 °F 30.6 in Calm   1.2 mph 87% 0 in 19.00 W/m2 unknown
07:14 41 °F 37.4 °F 30.6 in NNE 1.2 mph 1.2 mph 87% 0 in 23.00 W/m2 unknown
07:19 41 °F 37.4 °F 30.6 in NE 1.9 mph 2.5 mph 87% 0 in 25.00 W/m2 unknown
07:24 41 °F 37.4 °F 30.6 in ENE 1.2 mph 2.5 mph 87% 0 in 26.00 W/m2 unknown
07:29 41 °F 37.4 °F 30.6 in East 1.2 mph 2.5 mph 87% 0 in 32.00 W/m2 unknown
07:34 41 °F 37.4 °F 30.6 in Calm   1.9 mph 87% 0 in 39.00 W/m2 unknown
07:39 41 °F 37.4 °F 30.6 in NE 0.6 mph 1.2 mph 87% 0 in 44.00 W/m2 unknown
07:44 41 °F 37.4 °F 30.6 in NE 1.2 mph 1.2 mph 87% 0 in 51.00 W/m2 unknown
07:49 41 °F 37.4 °F 30.6 in East 0.6 mph 1.2 mph 87% 0 in 58.00 W/m2 unknown
07:54 41 °F 39.2 °F 30.6 in East 1.9 mph 3.1 mph 88% 0 in 63.00 W/m2 unknown
07:59 42.8 °F 39.2 °F 30.6 in ESE 1.9 mph 3.7 mph 88% 0 in 69.00 W/m2 unknown
08:04 42.8 °F 39.2 °F 30.6 in ESE 1.2 mph 3.1 mph 89% 0 in 74.00 W/m2 unknown
08:09 42.8 °F 39.2 °F 30.6 in ESE 1.2 mph 2.5 mph 89% 0 in 77.00 W/m2 unknown
08:14 42.8 °F 39.2 °F 30.6 in ESE 1.2 mph 2.5 mph 89% 0 in 79.00 W/m2 unknown
08:19 42.8 °F 39.2 °F 30.6 in ESE 1.2 mph 2.5 mph 88% 0 in 84.00 W/m2 unknown
08:24 42.8 °F 39.2 °F 30.6 in East 1.2 mph 2.5 mph 88% 0 in 91.00 W/m2 unknown
08:29 42.8 °F 39.2 °F 30.6 in East 1.2 mph 1.9 mph 87% 0 in 100.00 W/m2 unknown
08:34 44.6 °F 41 °F 30.6 in Calm   1.2 mph 87% 0 in 111.00 W/m2 unknown
08:39 44.6 °F 41 °F 30.6 in Calm   1.2 mph 87% 0 in 125.00 W/m2 unknown
08:44 44.6 °F 41 °F 30.6 in East 1.2 mph 2.5 mph 86% 0 in 139.00 W/m2 unknown
08:49 44.6 °F 41 °F 30.6 in East 1.2 mph 2.5 mph 86% 0 in 158.00 W/m2 unknown
08:54 44.6 °F 41 °F 30.6 in ESE 1.2 mph 2.5 mph 85% 0 in 181.00 W/m2 unknown
08:59 44.6 °F 41 °F 30.6 in ESE 1.2 mph 2.5 mph 86% 0 in 193.00 W/m2 unknown
09:04 44.6 °F 41 °F 30.6 in ESE 1.2 mph 2.5 mph 86% 0 in 197.00 W/m2 unknown
09:09 44.6 °F 41 °F 30.6 in ESE 1.2 mph 2.5 mph 85% 0 in 190.00 W/m2 unknown
09:14 46.4 °F 41 °F 30.6 in Calm   1.9 mph 85% 0 in 190.00 W/m2 unknown
09:19 46.4 °F 41 °F 30.6 in SW 1.2 mph 2.5 mph 85% 0 in 199.00 W/m2 unknown
09:24 46.4 °F 41 °F 30.6 in ENE 1.9 mph 3.7 mph 84% 0 in 246.00 W/m2 unknown
09:29 46.4 °F 42.8 °F 30.6 in ESE 1.2 mph 3.1 mph 83% 0 in 262.00 W/m2 unknown
09:34 48.2 °F 42.8 °F 30.6 in East 1.9 mph 3.7 mph 83% 0 in 265.00 W/m2 unknown
09:39 48.2 °F 42.8 °F 30.6 in South 2.5 mph 3.7 mph 81% 0 in 264.00 W/m2 unknown
09:44 48.2 °F 42.8 °F 30.6 in East 3.1 mph 5 mph 81% 0 in 255.00 W/m2 unknown
09:49 48.2 °F 41 °F 30.6 in East 4.3 mph 5 mph 79% 0 in 221.00 W/m2 unknown
09:54 48.2 °F 41 °F 30.6 in ESE 3.1 mph 5 mph 79% 0 in 269.00 W/m2 unknown
09:59 48.2 °F 42.8 °F 30.6 in ESE 2.5 mph 3.7 mph 78% 0 in 334.00 W/m2 unknown
10:04 50 °F 42.8 °F 30.6 in East 3.7 mph 5 mph 78% 0 in 411.00 W/m2 unknown
10:09 50 °F 42.8 °F 30.6 in East 4.3 mph 6.8 mph 76% 0 in 424.00 W/m2 unknown
10:14 50 °F 42.8 °F 30.6 in East 5 mph 6.8 mph 76% 0 in 385.00 W/m2 unknown
10:19 50 °F 42.8 °F 30.6 in ESE 3.1 mph 6.8 mph 75% 0 in 381.00 W/m2 unknown
10:24 50 °F 42.8 °F 30.6 in ESE 4.3 mph 8.1 mph 76% 0 in 385.00 W/m2 unknown
10:29 50 °F 42.8 °F 30.6 in East 5.6 mph 8.1 mph 77% 0 in 397.00 W/m2 unknown
10:34 51.8 °F 42.8 °F 30.6 in East 5.6 mph 9.3 mph 75% 0 in 441.00 W/m2 unknown
10:39 51.8 °F 42.8 °F 30.6 in ESE 6.2 mph 8.1 mph 72% 0 in 450.00 W/m2 unknown
10:44 50 °F 42.8 °F 30.6 in East 6.8 mph 8.1 mph 72% 0 in 424.00 W/m2 unknown
10:49 51.8 °F 42.8 °F 30.6 in East 6.2 mph 6.8 mph 72% 0 in 380.00 W/m2 unknown
10:54 51.8 °F 42.8 °F 30.6 in East 6.2 mph 8.1 mph 73% 0 in 396.00 W/m2 unknown
10:59 51.8 °F 42.8 °F 30.6 in ESE 6.2 mph 8.1 mph 73% 0 in 396.00 W/m2 unknown
11:04 51.8 °F 42.8 °F 30.6 in East 6.2 mph 8.1 mph 73% 0 in 399.00 W/m2 unknown
11:09 51.8 °F 42.8 °F 30.6 in East 7.5 mph 9.3 mph 72% 0 in 429.00 W/m2 unknown
11:14 51.8 °F 42.8 °F 30.6 in East 7.5 mph 9.3 mph 72% 0 in 439.00 W/m2 unknown
11:19 51.8 °F 42.8 °F 30.6 in East 6.8 mph 8.7 mph 71% 0 in 457.00 W/m2 unknown
11:24 51.8 °F 42.8 °F 30.6 in ENE 6.2 mph 8.1 mph 70% 0 in 459.00 W/m2 unknown
11:29 53.6 °F 42.8 °F 30.6 in East 5 mph 8.1 mph 71% 0 in 475.00 W/m2 unknown
11:34 53.6 °F 44.6 °F 30.6 in NE 3.1 mph 5 mph 73% 0 in 504.00 W/m2 unknown
11:39 53.6 °F 42.8 °F 30.6 in East 5 mph 6.8 mph 68% 0 in 512.00 W/m2 unknown
11:44 53.6 °F 42.8 °F 30.6 in ENE 5 mph 6.8 mph 69% 0 in 506.00 W/m2 unknown
11:49 53.6 °F 42.8 °F 30.6 in East 3.1 mph 6.2 mph 67% 0 in 512.00 W/m2 unknown
11:54 53.6 °F 44.6 °F 30.6 in ESE 4.3 mph 6.2 mph 67% 0 in 506.00 W/m2 unknown
11:59 53.6 °F 42.8 °F 30.6 in SSW 3.1 mph 6.2 mph 66% 0 in 487.00 W/m2 unknown
12:04 55.4 °F 46.4 °F 30.6 in SSW 4.3 mph 6.8 mph 71% 0 in 489.00 W/m2 unknown
12:09 55.4 °F 44.6 °F 30.6 in ESE 5 mph 6.8 mph 66% 0 in 485.00 W/m2 unknown
12:14 55.4 °F 42.8 °F 30.6 in ESE 3.7 mph 6.2 mph 66% 0 in 483.00 W/m2 unknown
12:19 55.4 °F 44.6 °F 30.6 in SE 4.3 mph 6.8 mph 67% 0 in 499.00 W/m2 unknown
12:24 55.4 °F 44.6 °F 30.6 in East 4.3 mph 6.8 mph 67% 0 in 513.00 W/m2 unknown
12:29 55.4 °F 44.6 °F 30.6 in NNE 5.6 mph 6.8 mph 66% 0 in 494.00 W/m2 unknown
12:34 55.4 °F 44.6 °F 30.6 in ENE 5.6 mph 6.8 mph 66% 0 in 483.00 W/m2 unknown
12:39 55.4 °F 44.6 °F 30.6 in NE 1.9 mph 6.8 mph 66% 0 in 462.00 W/m2 unknown
12:44 55.4 °F 44.6 °F 30.6 in NNE 2.5 mph 3.7 mph 66% 0 in 459.00 W/m2 unknown
12:49 55.4 °F 44.6 °F 30.6 in NE 2.5 mph 5 mph 66% 0 in 459.00 W/m2 unknown
12:54 55.4 °F 44.6 °F 30.5 in East 3.7 mph 5 mph 65% 0 in 471.00 W/m2 unknown
12:59 55.4 °F 44.6 °F 30.5 in ESE 3.1 mph 5 mph 65% 0 in 489.00 W/m2 unknown
13:04 55.4 °F 44.6 °F 30.5 in SW 4.3 mph 6.2 mph 66% 0 in 485.00 W/m2 unknown
13:09 55.4 °F 44.6 °F 30.5 in WSW 4.3 mph 6.2 mph 66% 0 in 496.00 W/m2 unknown
13:14 57.2 °F 44.6 °F 30.5 in NNW 3.7 mph 6.2 mph 66% 0 in 464.00 W/m2 unknown
13:19 57.2 °F 44.6 °F 30.5 in ESE 5 mph 6.8 mph 65% 0 in 436.00 W/m2 unknown
13:24 57.2 °F 44.6 °F 30.5 in ESE 5 mph 6.8 mph 64% 0 in 403.00 W/m2 unknown
13:29 57.2 °F 44.6 °F 30.5 in SSW 3.7 mph 6.2 mph 63% 0 in 429.00 W/m2 unknown
13:34 57.2 °F 44.6 °F 30.5 in SW 4.3 mph 6.2 mph 63% 0 in 432.00 W/m2 unknown
13:39 57.2 °F 44.6 °F 30.5 in South 5 mph 6.2 mph 64% 0 in 418.00 W/m2 unknown
13:44 55.4 °F 44.6 °F 30.5 in South 5 mph 6.2 mph 65% 0 in 473.00 W/m2 unknown
13:49 57.2 °F 44.6 °F 30.5 in SW 5 mph 6.2 mph 64% 0 in 459.00 W/m2 unknown
13:54 57.2 °F 44.6 °F 30.5 in SSW 5 mph 6.2 mph 63% 0 in 473.00 W/m2 unknown
13:59 57.2 °F 44.6 °F 30.5 in South 4.3 mph 6.2 mph 63% 0 in 485.00 W/m2 unknown
14:04 57.2 °F 44.6 °F 30.5 in West 5 mph 6.2 mph 62% 0 in 471.00 W/m2 unknown
14:09 57.2 °F 44.6 °F 30.5 in SW 5.6 mph 6.8 mph 62% 0 in 441.00 W/m2 unknown
14:14 57.2 °F 44.6 °F 30.5 in SSW 4.3 mph 6.8 mph 61% 0 in 406.00 W/m2 unknown
14:19 57.2 °F 44.6 °F 30.5 in SSW 4.3 mph 6.8 mph 61% 0 in 411.00 W/m2 unknown
14:24 57.2 °F 44.6 °F 30.5 in SW 5 mph 6.8 mph 61% 0 in 434.00 W/m2 unknown
14:29 57.2 °F 44.6 °F 30.5 in NNW 2.5 mph 5 mph 61% 0 in 459.00 W/m2 unknown
14:34 59 °F 44.6 °F 30.5 in NNW 2.5 mph 3.7 mph 61% 0 in 459.00 W/m2 unknown
14:39 59 °F 44.6 °F 30.5 in WNW 1.9 mph 3.7 mph 59% 0 in 445.00 W/m2 unknown
14:44 59 °F 44.6 °F 30.5 in NW 3.1 mph 3.7 mph 61% 0 in 445.00 W/m2 unknown
14:49 59 °F 44.6 °F 30.5 in West 1.9 mph 3.7 mph 60% 0 in 429.00 W/m2 unknown
14:54 59 °F 44.6 °F 30.5 in SSW 3.1 mph 3.7 mph 61% 0 in 417.00 W/m2 unknown
14:59 59 °F 44.6 °F 30.5 in West 5 mph 6.2 mph 60% 0 in 373.00 W/m2 unknown
15:04 59 °F 44.6 °F 30.5 in WNW 3.7 mph 6.2 mph 59% 0 in 373.00 W/m2 unknown
15:09 57.2 °F 44.6 °F 30.5 in WSW 3.1 mph 6.2 mph 60% 0 in 371.00 W/m2 unknown
15:14 59 °F 44.6 °F 30.5 in WSW 5.6 mph 6.2 mph 61% 0 in 374.00 W/m2 unknown
15:19 57.2 °F 44.6 °F 30.5 in West 5 mph 6.2 mph 61% 0 in 381.00 W/m2 unknown
15:24 57.2 °F 44.6 °F 30.5 in WNW 1.9 mph 6.2 mph 61% 0 in 371.00 W/m2 unknown
15:29 59 °F 44.6 °F 30.5 in WSW 5.6 mph 8.1 mph 61% 0 in 374.00 W/m2 unknown
15:34 59 °F 44.6 °F 30.5 in West 6.8 mph 10.6 mph 61% 0 in 373.00 W/m2 unknown
15:39 59 °F 44.6 °F 30.5 in West 6.2 mph 9.9 mph 60% 0 in 352.00 W/m2 unknown
15:44 57.2 °F 44.6 °F 30.5 in WNW 1.9 mph 6.8 mph 60% 0 in 330.00 W/m2 unknown
15:49 59 °F 44.6 °F 30.5 in ESE 2.5 mph 3.7 mph 60% 0 in 322.00 W/m2 unknown
15:54 59 °F 44.6 °F 30.5 in West 3.7 mph 5 mph 60% 0 in 313.00 W/m2 unknown
15:59 59 °F 44.6 °F 30.5 in WSW 3.1 mph 5 mph 60% 0 in 292.00 W/m2 unknown
16:04 59 °F 44.6 °F 30.5 in NW 3.7 mph 5 mph 59% 0 in 276.00 W/m2 unknown
16:09 59 °F 44.6 °F 30.5 in NW 3.7 mph 5 mph 59% 0 in 234.00 W/m2 unknown
16:14 59 °F 44.6 °F 30.5 in WSW 5 mph 6.2 mph 60% 0 in 220.00 W/m2 unknown
16:19 57.2 °F 44.6 °F 30.5 in SW 5 mph 6.2 mph 61% 0 in 200.00 W/m2 unknown
16:24 57.2 °F 44.6 °F 30.5 in WSW 3.7 mph 6.2 mph 61% 0 in 181.00 W/m2 unknown
16:29 57.2 °F 44.6 °F 30.5 in West 3.1 mph 4.3 mph 61% 0 in 181.00 W/m2 unknown
16:34 57.2 °F 42.8 °F 30.5 in WNW 4.3 mph 6.2 mph 59% 0 in 202.00 W/m2 unknown
16:39 57.2 °F 44.6 °F 30.5 in West 5 mph 6.2 mph 60% 0 in 200.00 W/m2 unknown
16:44 57.2 °F 44.6 °F 30.5 in West 3.7 mph 6.2 mph 60% 0 in 195.00 W/m2 unknown
16:49 57.2 °F 42.8 °F 30.5 in WNW 3.7 mph 5 mph 59% 0 in 197.00 W/m2 unknown
16:54 57.2 °F 44.6 °F 30.5 in WNW 3.7 mph 3.7 mph 60% 0 in 197.00 W/m2 unknown
16:59 57.2 °F 44.6 °F 30.5 in West 4.3 mph 5 mph 59% 0 in 169.00 W/m2 unknown
17:04 57.2 °F 42.8 °F 30.5 in WSW 3.7 mph 5 mph 59% 0 in 128.00 W/m2 unknown
17:09 57.2 °F 42.8 °F 30.5 in WSW 5 mph 6.2 mph 59% 0 in 105.00 W/m2 unknown
17:14 57.2 °F 42.8 °F 30.5 in West 3.1 mph 6.2 mph 60% 0 in 90.00 W/m2 unknown
17:19 57.2 °F 42.8 °F 30.5 in West 2.5 mph 3.7 mph 60% 0 in 79.00 W/m2 unknown
17:24 57.2 °F 42.8 °F 30.5 in West 3.1 mph 3.7 mph 59% 0 in 69.00 W/m2 unknown
17:29 57.2 °F 42.8 °F 30.5 in West 3.1 mph 4.3 mph 60% 0 in 62.00 W/m2 unknown
17:34 57.2 °F 42.8 °F 30.4 in WSW 3.1 mph 3.7 mph 60% 0 in 54.00 W/m2 unknown
17:39 57.2 °F 42.8 °F 30.4 in WSW 3.1 mph 3.7 mph 60% 0 in 47.00 W/m2 unknown
17:44 55.4 °F 42.8 °F 30.4 in WSW 3.1 mph 3.7 mph 61% 0 in 44.00 W/m2 unknown
17:49 55.4 °F 42.8 °F 30.4 in WSW 3.1 mph 3.7 mph 62% 0 in 37.00 W/m2 unknown
17:54 55.4 °F 42.8 °F 30.5 in WSW 2.5 mph 3.7 mph 62% 0 in 30.00 W/m2 unknown
17:59 55.4 °F 42.8 °F 30.4 in WSW 2.5 mph 3.7 mph 62% 0 in 23.00 W/m2 unknown
18:04 55.4 °F 42.8 °F 30.4 in WSW 1.9 mph 3.7 mph 63% 0 in 19.00 W/m2 unknown
18:09 55.4 °F 42.8 °F 30.4 in WSW 2.5 mph 3.7 mph 63% 0 in 14.00 W/m2 unknown
18:14 55.4 °F 42.8 °F 30.4 in WSW 1.9 mph 3.7 mph 63% 0 in 9.00 W/m2 unknown
18:19 53.6 °F 42.8 °F 30.4 in West 2.5 mph 3.7 mph 64% 0 in 5.00 W/m2 unknown
18:24 53.6 °F 42.8 °F 30.4 in WSW 2.5 mph 3.7 mph 65% 0 in 0.00 W/m2 unknown
18:29 53.6 °F 42.8 °F 30.4 in West 1.9 mph 3.1 mph 65% 0 in 0.00 W/m2 unknown
18:34 53.6 °F 42.8 °F 30.4 in West 1.2 mph 2.5 mph 65% 0 in 0.00 W/m2 unknown
18:39 53.6 °F 42.8 °F 30.4 in West 1.2 mph 1.9 mph 65% 0 in 0.00 W/m2 unknown
18:44 53.6 °F 42.8 °F 30.4 in West 1.2 mph 2.5 mph 66% 0 in 0.00 W/m2 unknown
18:49 53.6 °F 42.8 °F 30.4 in West 1.2 mph 2.5 mph 66% 0 in 0.00 W/m2 unknown
18:54 51.8 °F 41 °F 30.4 in West 1.9 mph 2.5 mph 66% 0 in 0.00 W/m2 unknown
18:59 51.8 °F 41 °F 30.4 in West 1.2 mph 2.5 mph 66% 0 in 0.00 W/m2 unknown
19:04 51.8 °F 41 °F 30.4 in West 1.2 mph 2.5 mph 67% 0 in 0.00 W/m2 unknown
19:09 51.8 °F 41 °F 30.4 in West 1.2 mph 1.2 mph 68% 0 in 0.00 W/m2 unknown
19:14 51.8 °F 41 °F 30.4 in West 1.2 mph 2.5 mph 68% 0 in 0.00 W/m2 unknown
19:19 51.8 °F 41 °F 30.4 in West 1.2 mph 2.5 mph 68% 0 in 0.00 W/m2 unknown
19:24 51.8 °F 41 °F 30.4 in West 1.2 mph 2.5 mph 68% 0 in 0.00 W/m2 unknown
19:29 51.8 °F 41 °F 30.4 in West 1.2 mph 2.5 mph 68% 0 in 0.00 W/m2 unknown
19:34 51.8 °F 41 °F 30.4 in West 2.5 mph 3.7 mph 68% 0 in 0.00 W/m2 unknown
19:39 51.8 °F 41 °F 30.4 in NW 2.5 mph 3.7 mph 69% 0 in 0.00 W/m2 unknown
19:44 51.8 °F 41 °F 30.4 in West 1.9 mph 3.1 mph 69% 0 in 0.00 W/m2 unknown
19:49 50 °F 41 °F 30.4 in West 1.9 mph 2.5 mph 70% 0 in 0.00 W/m2 unknown
19:54 50 °F 41 °F 30.4 in West 1.2 mph 2.5 mph 71% 0 in 0.00 W/m2 unknown
19:59 50 °F 41 °F 30.4 in West 2.5 mph 3.7 mph 71% 0 in 0.00 W/m2 unknown
20:04 50 °F 41 °F 30.4 in West 2.5 mph 3.7 mph 71% 0 in 0.00 W/m2 unknown
20:09 50 °F 41 °F 30.4 in West 2.5 mph 3.7 mph 71% 0 in 0.00 W/m2 unknown
20:14 50 °F 41 °F 30.4 in West 1.9 mph 3.7 mph 72% 0 in 0.00 W/m2 unknown
20:19 48.2 °F 39.2 °F 30.4 in West 1.9 mph 3.7 mph 72% 0 in 0.00 W/m2 unknown
20:24 48.2 °F 39.2 °F 30.4 in West 1.9 mph 3.1 mph 72% 0 in 0.00 W/m2 unknown
20:29 48.2 °F 39.2 °F 30.4 in West 1.9 mph 2.5 mph 72% 0 in 0.00 W/m2 unknown
20:34 48.2 °F 39.2 °F 30.4 in West 1.9 mph 2.5 mph 72% 0 in 0.00 W/m2 unknown
20:39 48.2 °F 39.2 °F 30.4 in West 1.9 mph 3.7 mph 73% 0 in 0.00 W/m2 unknown
20:44 48.2 °F 39.2 °F 30.4 in West 2.5 mph 3.7 mph 74% 0 in 0.00 W/m2 unknown
20:49 46.4 °F 39.2 °F 30.4 in West 2.5 mph 3.7 mph 74% 0 in 0.00 W/m2 unknown
20:54 48.2 °F 39.2 °F 30.4 in West 2.5 mph 3.7 mph 75% 0 in 0.00 W/m2 unknown
20:59 48.2 °F 39.2 °F 30.4 in WSW 2.5 mph 3.7 mph 74% 0 in 0.00 W/m2 unknown
21:04 48.2 °F 39.2 °F 30.4 in WSW 2.5 mph 3.7 mph 74% 0 in 0.00 W/m2 unknown
21:09 48.2 °F 39.2 °F 30.4 in WSW 1.9 mph 3.1 mph 73% 0 in 0.00 W/m2 unknown
21:14 48.2 °F 41 °F 30.4 in SSW 3.1 mph 3.7 mph 73% 0 in 0.00 W/m2 unknown
21:19 48.2 °F 41 °F 30.4 in SSW 3.1 mph 3.7 mph 73% 0 in 0.00 W/m2 unknown
21:24 48.2 °F 41 °F 30.4 in SW 2.5 mph 3.7 mph 73% 0 in 0.00 W/m2 unknown
21:29 48.2 °F 41 °F 30.4 in SW 1.2 mph 3.1 mph 73% 0 in 0.00 W/m2 unknown
21:34 48.2 °F 41 °F 30.4 in Calm   1.9 mph 73% 0 in 0.00 W/m2 unknown
21:39 48.2 °F 41 °F 30.4 in Calm     74% 0 in 0.00 W/m2 unknown
21:44 48.2 °F 41 °F 30.4 in Calm     74% 0 in 0.00 W/m2 unknown
21:49 48.2 °F 41 °F 30.4 in Calm     74% 0 in 0.00 W/m2 unknown
21:54 48.2 °F 41 °F 30.4 in Calm     73% 0 in 0.00 W/m2 unknown
21:59 48.2 °F 41 °F 30.4 in Calm     73% 0 in 0.00 W/m2 unknown
22:04 48.2 °F 41 °F 30.4 in SW 1.2 mph 2.5 mph 73% 0 in 0.00 W/m2 unknown
22:09 50 °F 41 °F 30.4 in SW 1.2 mph 2.5 mph 73% 0 in 0.00 W/m2 unknown
22:14 50 °F 41 °F 30.4 in SW 1.9 mph 2.5 mph 73% 0 in 0.00 W/m2 unknown
22:19 50 °F 41 °F 30.4 in SW 1.2 mph 2.5 mph 73% 0 in 0.00 W/m2 unknown
22:24 48.2 °F 41 °F 30.4 in SW 1.9 mph 3.1 mph 74% 0 in 0.00 W/m2 unknown
22:29 48.2 °F 41 °F 30.4 in SW 1.9 mph 3.7 mph 75% 0 in 0.00 W/m2 unknown
22:34 50 °F 41 °F 30.4 in SSW 2.5 mph 3.7 mph 75% 0 in 0.00 W/m2 unknown
22:39 50 °F 41 °F 30.4 in SW 1.9 mph 3.7 mph 74% 0 in 0.00 W/m2 unknown
22:44 50 °F 41 °F 30.4 in WSW 1.9 mph 3.7 mph 73% 0 in 0.00 W/m2 unknown
22:49 50 °F 41 °F 30.4 in WSW 1.2 mph 3.1 mph 73% 0 in 0.00 W/m2 unknown
22:54 50 °F 41 °F 30.4 in Calm   1.9 mph 73% 0 in 0.00 W/m2 unknown
22:59 50 °F 41 °F 30.4 in Calm   1.2 mph 73% 0 in 0.00 W/m2 unknown
23:04 50 °F 42.8 °F 30.4 in SE 1.2 mph 2.5 mph 75% 0 in 0.00 W/m2 unknown
23:09 50 °F 42.8 °F 30.4 in ESE 1.9 mph 3.1 mph 79% 0 in 0.00 W/m2 unknown
23:14 48.2 °F 42.8 °F 30.4 in ENE 1.9 mph 3.7 mph 79% 0 in 0.00 W/m2 unknown
23:19 48.2 °F 42.8 °F 30.4 in ENE 0.6 mph 3.1 mph 79% 0 in 0.00 W/m2 unknown
23:24 48.2 °F 42.8 °F 30.4 in Calm   1.2 mph 79% 0 in 0.00 W/m2 unknown
23:29 48.2 °F 42.8 °F 30.4 in ENE 0.6 mph 1.9 mph 79% 0 in 0.00 W/m2 unknown
23:34 48.2 °F 42.8 °F 30.4 in East 2.5 mph 3.7 mph 79% 0 in 0.00 W/m2 unknown
23:39 48.2 °F 42.8 °F 30.4 in ESE 2.5 mph 3.7 mph 79% 0 in 0.00 W/m2 unknown
23:44 48.2 °F 42.8 °F 30.4 in ESE 0.6 mph 3.1 mph 79% 0 in 0.00 W/m2 unknown
23:49 48.2 °F 42.8 °F 30.4 in ESE 1.2 mph 1.2 mph 78% 0 in 0.00 W/m2 unknown
23:54 48.2 °F 42.8 °F 30.4 in ESE 0.6 mph 1.2 mph 78% 0 in 0.00 W/m2 unknown
23:59 48.2 °F 42.8 °F 30.4 in ESE 0.6 mph 1.2 mph 78% 0 in 0.00 W/m2 unknown
Stazione Meteorologica MeteoMincio Rivalta s/M (MN)
Con i complimenti di Weather Underground - 4 mb



METEO PILLOLE
Maggior quantità di pioggia caduta in un minuto
Unionville (152 m) - USA
il 4 luglio 1956 caddero 31.2mm.
Share

Non seguire questo link o sarai bannato dal sito!